Retour au catalogue

STARLINK-31609

ActifCommunicationsVLEO
NORAD 59269·PAYLOAD·🇺🇸 United States

Lancé Mar 19, 2024 depuis Vandenberg Space Force Base

Loading…

Prochains Passages (prochaines 24 heures)

TLE

FraisSource: CelesTrak SupGP

Époque: Sep 14, 2026, 21:11 UTC

1 59269C 24050R   26257.88312500  .00025087  00000+0  74136-3 0  2573
2 59269  53.1609  19.8192 0001241  79.3658 102.3434 15.34371693    13

Suivez STARLINK-31609 en temps réel avec AllMySat

Download on the App Store